date,time,DOY,Ta_1_1_1,Pa_1_1_1,RH_1_1_1,LWin_1_1_1,LWout_1_1_1,SWin_1_1_1,SWout_1_1_1,PPFD_1_1_1,MWS_1_1_1,WD_1_1_1,SWC_1_1_1,Ts_1_1_1
[yyyy-mm-dd],[HH:MM],[ddd.ddd],[K],[Pa],[%],[W+1m-2],[W+1m-2],[W+1m-2],[W+1m-2],[µmol+1m-2s-1],[m+1s-1],[deg],[m+3m-3],[K]
2018-06-01,00:30,152.020,293.35166666666657,94031.933333333334,71.940333333333328,418.78466666666662,396.04799999999994,11.172999999999996,61.504333333333356,127.60166666666666,3.3433333333333333,295.08966666666669,0.33999999999999991,288.59800000000007
2018-06-01,01:00,152.041,292.90333333333336,94061.100000000006,74.695666666666682,416.41699999999997,393.43099999999993,8.9156666666666720,43.247000000000000,86.420999999999992,2.8799999999999999,301.35466666666667,0.33999999999999991,288.56200000000013
2018-06-01,01:30,152.062,292.58000000000004,94102.333333333328,76.962000000000003,414.75100000000003,391.67000000000013,3.8583333333333334,16.161333333333332,35.561000000000000,3.2433333333333341,294.39933333333335,0.33999999999999991,288.51800000000014
2018-06-01,02:00,152.083,292.20400000000006,94136.233333333337,79.009333333333331,411.70733333333322,378.78633333333329,1.4876666666666660,2.0426666666666664,7.8073333333333332,3.3766666666666669,297.60000000000002,0.33999999999999991,288.47199999999998
2018-06-01,02:30,152.104,291.55500000000001,94178.100000000006,82.081333333333333,407.69733333333340,361.71866666666659,0.61766666666666659,-2.8879999999999995,0.24933333333333335,3.7433333333333336,327.77766666666668,0.33999999999999991,288.41399999999999
2018-06-01,03:00,152.124,290.67666666666679,94231.133333333331,85.859333333333296,403.24533333333329,358.08799999999997,0.80333333333333312,-3.0253333333333332,1.80000000000000056E-002,3.5466666666666664,329.06700000000001,0.33933333333333326,288.36166666666674
2018-06-01,03:30,152.145,290.27000000000015,94263.866666666669,87.163999999999987,403.27866666666677,393.84499999999997,0.35266666666666668,-0.51533333333333331,6.66666666666666753E-004,3.9800000000000000,329.96633333333335,0.33000000000000002,288.30166666666662
2018-06-01,04:00,152.166,289.65633333333335,94276.066666666666,88.621333333333311,400.27700000000010,397.22500000000002,-0.25166666666666671,-0.38166666666666665,6.66666666666666709E-003,5.3133333333333335,301.68866666666668,0.33000000000000002,288.24233333333336
2018-06-01,04:30,152.187,287.77100000000002,94314.666666666672,90.957666666666697,390.15566666666666,388.35933333333338,-0.27566666666666673,-0.26333333333333331,-3.33333333333333160E-004,4.1799999999999997,268.05566666666670,0.33000000000000002,288.17699999999996
2018-06-01,05:00,152.208,286.59333333333336,94357.000000000000,91.245333333333335,384.39700000000005,381.91933333333338,-0.17000000000000001,-0.32866666666666683,9.00000000000000105E-003,4.4766666666666675,280.71033333333332,0.33000000000000002,288.09800000000001
2018-06-01,05:30,152.229,285.67433333333332,94411.399999999994,91.215000000000018,379.63600000000008,376.81933333333330,1.26666666666666594E-002,-0.29699999999999999,-5.66666666666666707E-003,4.6766666666666650,276.23366666666669,0.33000000000000002,287.99600000000004
2018-06-01,06:00,152.249,284.77066666666661,94466.166666666672,90.921000000000006,374.40600000000001,371.86333333333334,-0.17100000000000001,-0.36299999999999993,-7.66666666666666712E-003,5.2633333333333336,177.85600000000002,0.33000000000000002,287.87266666666676
2018-06-01,06:30,152.270,283.60233333333338,94511.800000000003,91.090999999999980,368.18800000000005,366.02333333333326,-7.40000000000000102E-002,-0.22200000000000000,-2.33333333333333309E-003,4.6899999999999995,153.53266666666664,0.33000000000000002,287.73800000000000
2018-06-01,07:00,152.291,282.73133333333340,94535.500000000000,91.400000000000006,363.72366666666670,361.88900000000007,1.40000000000000020E-002,-0.12266666666666667,-6.66666666666666623E-003,4.3899999999999997,273.68933333333337,0.33000000000000002,287.57400000000013
2018-06-01,07:30,152.312,282.22700000000003,94549.800000000003,91.534000000000020,361.11200000000002,359.30733333333330,8.16666666666666791E-002,-8.03333333333333399E-002,-3.33333333333333160E-004,5.1333333333333346,282.46733333333333,0.33000000000000002,287.40833333333336
2018-06-01,08:00,152.333,281.66633333333340,94559.300000000003,91.552333333333323,358.18033333333341,356.32700000000000,6.19999999999999857E-002,-9.26666666666666888E-002,-4.00000000000000008E-003,5.1266666666666652,280.85533333333331,0.33000000000000002,287.22800000000001
2018-06-01,08:30,152.354,281.16500000000002,94578.433333333334,91.596666666666593,355.57266666666669,353.83633333333336,0.11466666666666668,-5.99999999999999908E-002,3.33333333333333160E-004,4.5666666666666655,228.32133333333331,0.33000000000000002,287.05000000000001
2018-06-01,09:00,152.374,280.68933333333320,94601.433333333334,91.619999999999948,353.41166666666663,351.87000000000000,0.10400000000000001,-5.76666666666666647E-002,-2.00000000000000004E-003,5.8399999999999999,169.62233333333330,0.33000000000000002,286.87466666666666
2018-06-01,09:30,152.395,280.03566666666671,94617.166666666672,91.573333333333281,350.10800000000006,348.36533333333335,6.60000000000000031E-002,-6.26666666666666622E-002,4.00000000000000008E-003,5.1733333333333329,250.46633333333332,0.33000000000000002,286.70066666666668
2018-06-01,10:00,152.416,279.63666666666660,94651.633333333331,91.648999999999958,348.11233333333337,346.00799999999998,0.19899999999999998,0.23333333333333334,0.57800000000000007,5.3999999999999995,254.51166666666668,0.33000000000000002,286.51966666666669
2018-06-01,10:30,152.437,279.51466666666670,94671.833333333328,91.756000000000043,347.39299999999997,345.58500000000004,0.76100000000000001,3.6523333333333334,7.6636666666666668,5.7533333333333347,237.13333333333333,0.33000000000000002,286.34766666666673
2018-06-01,11:00,152.458,279.45733333333322,94727.399999999994,91.800000000000011,347.03799999999990,345.59733333333338,1.1386666666666665,8.5489999999999995,21.657333333333334,6.1766666666666659,310.05566666666670,0.33000000000000002,286.17699999999996
2018-06-01,11:30,152.479,279.29633333333345,94756.233333333337,91.779000000000025,346.31599999999986,345.06966666666682,6.5046666666666653,36.548333333333325,73.394999999999996,6.4433333333333316,258.37833333333333,0.33000000000000002,286.01200000000000
2018-06-01,12:00,152.499,279.08833333333337,94806.233333333337,91.766666666666609,345.89999999999986,344.65200000000004,12.115666666666668,70.969000000000008,142.50933333333336,5.0299999999999994,211.77766666666668,0.33000000000000002,285.86133333333333
2018-06-01,12:30,152.520,278.53100000000001,94822.699999999997,91.605666666666622,344.45100000000002,342.93733333333330,23.530000000000005,141.33133333333333,275.86533333333330,4.3866666666666649,115.21066666666665,0.33000000000000002,285.72766666666666
2018-06-01,13:00,152.541,278.59266666666667,94850.866666666669,91.667999999999978,345.41166666666675,343.29533333333342,23.073333333333331,136.55799999999999,271.22833333333330,3.7233333333333323,130.12233333333333,0.33000000000000002,285.60800000000000
2018-06-01,13:30,152.562,278.72066666666672,94898.166666666672,91.652333333333289,347.00799999999998,344.83133333333336,29.495666666666672,173.53333333333336,344.62200000000001,3.6766666666666667,169.37800000000001,0.33000000000000002,285.50133333333338
2018-06-01,14:00,152.583,278.91866666666670,94936.500000000000,91.579999999999970,348.80900000000003,346.45400000000006,38.506666666666668,224.17800000000000,443.28466666666668,3.8999999999999999,226.93366666666668,0.33000000000000002,285.40733333333338
2018-06-01,14:30,152.604,279.16999999999996,95015.033333333340,91.404666666666671,350.74066666666670,347.69499999999999,42.027333333333331,242.59600000000003,481.76599999999991,3.7166666666666663,298.97800000000001,0.33000000000000002,285.31533333333334
2018-06-01,15:00,152.624,279.29299999999995,95066.233333333337,91.073333333333295,351.74766666666670,348.36999999999989,52.495999999999995,300.44633333333331,595.53866666666670,4.6733333333333320,311.47800000000001,0.33000000000000002,285.24499999999995
2018-06-01,15:30,152.645,279.43766666666676,95066.800000000003,90.217999999999989,354.73433333333327,349.80700000000007,68.038666666666657,391.35766666666677,769.54433333333327,4.5866666666666651,261.85533333333331,0.33000000000000002,285.17566666666670
2018-06-01,16:00,152.666,280.07333333333338,95048.566666666666,88.028333333333336,362.71066666666673,355.55266666666660,103.01100000000000,607.47133333333352,1190.8173333333332,3.4833333333333334,146.47800000000001,0.33000000000000002,285.12966666666659
2018-06-01,16:30,152.687,280.80766666666676,95051.766666666663,83.973333333333343,364.85666666666663,357.31099999999998,88.160000000000025,517.14299999999980,1018.5166666666665,4.4233333333333329,165.11066666666665,0.33000000000000002,285.10300000000007
2018-06-01,17:00,152.708,281.76200000000000,95046.733333333337,80.425333333333327,369.99933333333342,362.05833333333339,100.56266666666670,588.10400000000004,1166.0713333333333,3.9466666666666654,182.05533333333332,0.33000000000000002,285.09400000000005
2018-06-01,17:30,152.729,282.79566666666665,95050.366666666669,75.802000000000007,376.64733333333328,368.92199999999997,110.75500000000001,649.15100000000007,1281.8000000000002,4.1666666666666661,244.87699999999998,0.33000000000000002,285.10300000000012
2018-06-01,18:00,152.749,283.84266666666667,95062.466666666660,72.398333333333326,382.26933333333324,375.26333333333321,111.01533333333332,656.95266666666680,1305.3276666666666,3.4033333333333329,218.02233333333334,0.33000000000000002,285.13033333333345
2018-06-01,18:30,152.770,284.38400000000007,95086.033333333340,71.281999999999996,383.93299999999999,375.31666666666672,107.73266666666667,633.78099999999984,1260.7963333333339,4.4800000000000004,290.38933333333335,0.33000000000000002,285.16933333333333
2018-06-01,19:00,152.791,284.84699999999998,95092.300000000003,69.761666666666670,387.29733333333326,361.08933333333334,127.20299999999999,751.85033333333365,1539.4389999999999,5.1833333333333336,299.51133333333331,0.33000000000000002,285.21800000000002
2018-06-01,19:30,152.812,285.22466666666668,95090.833333333328,68.268999999999991,390.24266666666665,346.22066666666649,151.08833333333334,874.91966666666690,1793.3019999999999,6.0999999999999996,315.26766666666668,0.33000000000000002,285.28399999999999
2018-06-01,20:00,152.833,284.90733333333338,95070.933333333334,68.335999999999999,387.66999999999990,338.83966666666669,140.65866666666668,806.63099999999997,1666.0426666666669,5.6633333333333331,149.54433333333333,0.33000000000000002,285.36200000000002
2018-06-01,20:30,152.854,284.91899999999998,95053.366666666669,67.590333333333334,388.39033333333344,335.61766666666676,144.65199999999999,812.19666666666660,1688.7796666666666,5.5133333333333328,307.41200000000003,0.33000000000000002,285.42966666666666
2018-06-01,21:00,152.874,285.03433333333328,95059.566666666666,67.212000000000018,388.19800000000009,334.42266666666666,136.13899999999998,756.82033333333345,1573.6873333333335,5.3299999999999992,183.35533333333333,0.33000000000000002,285.48233333333337
2018-06-01,21:30,152.895,284.91566666666677,95091.666666666672,67.571333333333328,386.63433333333336,346.79466666666667,118.32800000000002,647.06299999999999,1325.3966666666665,5.0899999999999999,290.58933333333334,0.32133333333333347,285.51666666666671
2018-06-01,22:00,152.916,284.96600000000007,95111.399999999994,67.757333333333335,384.34199999999998,356.80666666666662,94.278666666666680,507.48799999999989,1050.0946666666669,4.9266666666666667,204.66633333333331,0.32000000000000012,285.52666666666670
2018-06-01,22:30,152.937,284.78600000000006,95148.866666666669,68.702666666666659,378.32733333333346,367.44600000000008,40.246666666666670,230.22233333333341,463.83266666666680,4.4533333333333323,196.75533333333334,0.32000000000000012,285.52500000000020
2018-06-01,23:00,152.958,284.12366666666668,95143.800000000003,70.667333333333332,373.06466666666654,338.13033333333328,36.654333333333334,204.39566666666667,432.46333333333337,5.4466666666666663,254.16700000000000,0.32000000000000012,285.51200000000006
2018-06-01,23:30,152.979,283.84000000000003,95121.033333333340,71.278999999999982,373.90466666666657,324.10166666666663,70.465666666666678,335.10766666666672,702.65099999999995,5.3499999999999996,177.57699999999997,0.32000000000000012,285.48333333333335
2018-06-02,00:00,153.000,283.41799999999995,95112.133333333331,71.252666666666670,370.81966666666665,319.55566666666658,60.435000000000009,265.20333333333338,550.37533333333340,6.1066666666666674,98.455333333333343,0.32000000000000012,285.43833333333333
